Flag for U.S.A. Weather past 2 weeks in Arden-Arcade, California, U.S.A.

Now
70 °F

Passing clouds.


Feels Like: 70 °F
Forecast: 52 / 88 °F
Wind: 6 mph from West

Location: Mather Field

Current Time: May 28, 2015 at 11:31:08 AM

Latest Report: May 28, 2015 at 10:45 AM


Visibility: 10 mi

Pressure: 30.00 "Hg

Humidity: 53%

Dew point: 52 °F

Location of Arden-ArcadeLocation

Historic Weather in Arden-Arcade — Graph

°F

Arden-Arcade temperature yesterday

Maximum temperature yesterday: 81 °F (at 3:55 PM)
Minimum temperature yesterday: 48 °F (at 4:45 AM)
Average temperature yesterday: 65 °F

Past Weeks' High & Low Weather Summary

 TemperatureHumidityPressure
High82 °F (May 24, 2:50 PM)100% (May 15, 2:45 AM)30.08 "Hg (May 15, 2:45 AM)
Low46 °F (May 14, 3:55 AM)30% (May 13, 3:48 PM)29.72 "Hg (May 14, 3:55 PM)
Average62 °F65%29.94 "Hg
* Reported May 13 9:47 AM — May 28 9:45 AM, Arden-Arcade, Weather by CustomWeather, © 2015

Note: Actual official high and low records may vary slightly from our data, if they occured in-between our weather recording intervals... More about our weather records

Advertising

Arden-Arcade weather history for previous 24 hours

 ConditionsComfort  
Time TempWeatherWind HumidityBarometerVisibility
9:45 AM
Thu, May 28
64 °FPassing clouds.5 mph64%30.00 "Hg10 mi
8:45 AM59 °FPassing clouds.6 mph77%30.01 "Hg10 mi
7:45 AM55 °FPartly sunny.6 mph88%30.01 "Hg10 mi
6:45 AM52 °FLow clouds.5 mph94%30.00 "Hg10 mi
5:50 AM48 °FPassing clouds.5 mph100%29.98 "Hg10 mi
3:55 AM48 °FClear.5 mph100%29.96 "Hg10 mi
11:30 PM
Wed, May 27
55 °FClear.6 mph82%29.97 "Hg10 mi
10:50 PM55 °FClear.6 mph82%29.96 "Hg10 mi
9:50 PM59 °FClear.8 mph77%29.95 "Hg10 mi
8:45 PM64 °FSunny.6 mph68%29.93 "Hg10 mi
7:45 PM72 °FSunny.12 mph53%29.91 "Hg10 mi
6:45 PM79 °FSunny.10 mph39%29.90 "Hg10 mi
5:45 PM81 °FSunny.7 mph37%29.90 "Hg10 mi
4:55 PM81 °FSunny.10 mph34%29.90 "Hg10 mi
3:55 PM81 °FSunny.10 mph37%29.92 "Hg10 mi
2:45 PM77 °FSunny.7 mph44%29.93 "Hg10 mi
1:45 PM75 °FSunny.8 mph47%29.95 "Hg10 mi
12:45 PM73 °FSunny.8 mph47%29.96 "Hg10 mi
11:45 AM70 °FSunny.7 mph53%29.98 "Hg10 mi
Weather by CustomWeather, © 2015

See weather overviewHow to use our weather pages